Back to catalog

ARIANE 5 R/B

AliveHEO
NORAD 33276·ROCKET BODY·🇫🇷 France

Launched Aug 14, 2008 from Guiana Space Centre

Loading…

Next Passes (next 24 hours)

TLE

FreshSource: Space-Track

Epoch: Sep 14, 2026, 12:44 UTC

1 33276U 08038C   26257.53074269  .00001937  00000-0  62068-3 0  9993
2 33276   2.4082  50.9923 7029647 263.1092  19.7974  2.59578055159092

Track ARIANE 5 R/B in real time with AllMySat

Download on the App Store